| time (UTC) | temp F | wind direction | speed MPH | gust MPH | rain 1hr in | rain 24hr in | rain mn in | humidity % | barometer mb |
| 20260831063443 | 75 | 169 | 0.0 | 0.0 | 0.00 | 0.00 | 0.00 | 76 | 1013.5 |
| 20260831062414 | 75 | 169 | 0.0 | 0.0 | 0.00 | 0.00 | 0.00 | 75 | 1013.5 |
| 20260831061359 | 75 | 169 | 0.0 | 0.0 | 0.00 | 0.00 | 0.00 | 74 | 1013.4 |
| 20260831055321 | 76 | 169 | 0.0 | 0.0 | 0.00 | 0.00 | 0.00 | 73 | 1013.5 |
| 20260831054308 | 76 | 169 | 0.0 | 0.0 | 0.00 | 0.00 | 0.00 | 73 | 1013.5 |
| 20260831053239 | 76 | 169 | 0.0 | 0.0 | 0.00 | 0.00 | 0.00 | 71 | 1013.4 |
| 20260831052259 | 77 | 169 | 0.0 | 0.0 | 0.00 | 0.00 | 0.00 | 70 | 1013.4 |
| 20260831051306 | 77 | 169 | 0.0 | 0.0 | 0.00 | 0.00 | 0.00 | 69 | 1013.3 |
| 20260831044014 | 78 | 169 | 0.0 | 0.0 | 0.00 | 0.00 | 0.00 | 66 | 1013.2 |
| 20260831043034 | 78 | 169 | 0.0 | 0.0 | 0.00 | 0.00 | 0.00 | 64 | 1013.2 |
| 20260831042047 | 78 | 169 | 0.0 | 0.0 | 0.00 | 0.00 | 0.00 | 63 | 1013.2 |
| 20260831041051 | 79 | 169 | 0.0 | 0.0 | 0.00 | 0.00 | 0.00 | 64 | 1013.1 |
| 20260831040042 | 79 | 169 | 0.0 | 0.0 | 0.00 | 0.00 | 0.00 | 63 | 1013.2 |
| 20260831035027 | 80 | 169 | 0.0 | 0.0 | 0.00 | 0.00 | 0.00 | 62 | 1013.1 |
| 20260831034043 | 80 | 169 | 0.0 | 0.0 | 0.00 | 0.00 | 0.00 | 61 | 1013.0 |
| 20260831033034 | 81 | 169 | 0.0 | 0.0 | 0.00 | 0.00 | 0.00 | 61 | 1013.0 |
| 20260831032022 | 81 | 169 | 0.0 | 0.0 | 0.00 | 0.00 | 0.00 | 59 | 1013.0 |
| 20260831030956 | 82 | 169 | 0.0 | 0.0 | 0.00 | 0.00 | 0.00 | 56 | 1013.0 |
| 20260831025958 | 82 | 169 | 0.0 | 0.0 | 0.00 | 0.00 | 0.00 | 56 | 1012.8 |
| 20260831024946 | 82 | 169 | 0.0 | 3.0 | 0.00 | 0.00 | 0.00 | 56 | 1012.7 |
| 20260831024008 | 83 | 165 | 0.0 | 0.0 | 0.00 | 0.00 | 0.00 | 54 | 1012.6 |
| 20260831023002 | 84 | 165 | 0.0 | 1.0 | 0.00 | 0.00 | 0.00 | 53 | 1012.4 |
| 20260831022013 | 84 | 170 | 0.0 | 1.0 | 0.00 | 0.00 | 0.00 | 53 | 1012.4 |
| 20260831021013 | 86 | 186 | 0.0 | 0.0 | 0.00 | 0.00 | 0.00 | 50 | 1012.2 |
| 20260831020035 | 87 | 186 | 0.0 | 0.0 | 0.00 | 0.00 | 0.00 | 48 | 1012.1 |
| 20260831015001 | 87 | 186 | 0.0 | 0.0 | 0.00 | 0.00 | 0.00 | 47 | 1012.0 |
| 20260831014014 | 89 | 187 | 0.0 | 1.0 | 0.00 | 0.00 | 0.00 | 46 | 1011.9 |
| 20260831011932 | 91 | 195 | 0.0 | 0.0 | 0.00 | 0.00 | 0.00 | 43 | 1011.8 |
| 20260831010913 | 92 | 195 | 1.0 | 4.0 | 0.00 | 0.00 | 0.00 | 41 | 1011.7 |
| 20260831005859 | 94 | 184 | 0.0 | 4.0 | 0.00 | 0.00 | 0.00 | 39 | 1011.7 |
| 20260831004903 | 95 | 159 | 0.0 | 0.0 | 0.00 | 0.00 | 0.00 | 37 | 1011.6 |
| 20260831003858 | 96 | 159 | 0.0 | 3.0 | 0.00 | 0.00 | 0.00 | 36 | 1011.5 |
| 20260831002908 | 97 | 146 | 0.0 | 2.0 | 0.00 | 0.00 | 0.00 | 35 | 1011.5 |
| 20260830235633 | 99 | 184 | 3.0 | 8.0 | 0.00 | 0.00 | 0.00 | 33 | 1011.7 |
| 20260830234630 | 100 | 157 | 3.0 | 11.0 | 0.00 | 0.00 | 0.00 | 33 | 1011.8 |
| 20260830233610 | 101 | 186 | 4.0 | 13.0 | 0.00 | 0.00 | 0.00 | 31 | 1011.7 |
| 20260830232601 | 101 | 180 | 4.0 | 13.0 | 0.00 | 0.00 | 0.00 | 32 | 1011.8 |
| 20260830231553 | 101 | 188 | 4.0 | 12.0 | 0.00 | 0.00 | 0.00 | 33 | 1011.9 |
| 20260830230526 | 101 | 198 | 4.0 | 12.0 | 0.00 | 0.00 | 0.00 | 32 | 1011.8 |
| 20260830225503 | 101 | 215 | 3.0 | 11.0 | 0.00 | 0.00 | 0.00 | 32 | 1011.7 |
| 20260830224428 | 101 | 138 | 6.0 | 11.0 | 0.00 | 0.00 | 0.00 | 32 | 1011.8 |
| 20260830223436 | 102 | 128 | 5.0 | 9.0 | 0.00 | 0.00 | 0.00 | 32 | 1011.9 |
| 20260830221338 | 101 | 170 | 8.0 | 16.0 | 0.00 | 0.00 | 0.00 | 32 | 1011.9 |
| 20260830220311 | 102 | 229 | 4.0 | 11.0 | 0.00 | 0.00 | 0.00 | 32 | 1011.8 |
| 20260830215326 | 102 | 121 | 3.0 | 10.0 | 0.00 | 0.00 | 0.00 | 32 | 1011.9 |
| 20260830211937 | 101 | 221 | 3.0 | 11.0 | 0.00 | 0.00 | 0.00 | 33 | 1012.3 |
| 20260830210907 | 101 | 82 | 5.0 | 14.0 | 0.00 | 0.00 | 0.00 | 33 | 1012.3 |
| 20260830205909 | 101 | 184 | 6.0 | 14.0 | 0.00 | 0.00 | 0.00 | 34 | 1012.4 |
| 20260830203751 | 102 | 202 | 5.0 | 13.0 | 0.00 | 0.00 | 0.00 | 35 | 1012.6 |
| 20260830202813 | 101 | 233 | 3.0 | 14.0 | 0.00 | 0.00 | 0.00 | 36 | 1012.8 |
| 20260830201756 | 101 | 205 | 8.0 | 14.0 | 0.00 | 0.00 | 0.00 | 35 | 1013.1 |
| 20260830200805 | 102 | 198 | 3.0 | 18.0 | 0.00 | 0.00 | 0.00 | 36 | 1013.2 |
| 20260830195802 | 100 | 223 | 7.0 | 18.0 | 0.00 | 0.00 | 0.00 | 36 | 1013.5 |
| 20260830194730 | 100 | 155 | 8.0 | 17.0 | 0.00 | 0.00 | 0.00 | 38 | 1013.6 |
| 20260830193717 | 99 | 182 | 6.0 | 19.0 | 0.00 | 0.00 | 0.00 | 37 | 1013.6 |
| 20260830192703 | 99 | 178 | 8.0 | 19.0 | 0.00 | 0.00 | 0.00 | 36 | 1013.8 |
| 20260830191713 | 99 | 236 | 7.0 | 17.0 | 0.00 | 0.00 | 0.00 | 37 | 1013.9 |
| 20260830190720 | 99 | 261 | 7.0 | 17.0 | 0.00 | 0.00 | 0.00 | 36 | 1014.0 |
| 20260830185651 | 99 | 198 | 8.0 | 18.0 | 0.00 | 0.00 | 0.00 | 38 | 1014.2 |
| 20260830183542 | 98 | 175 | 10.0 | 20.0 | 0.00 | 0.00 | 0.00 | 38 | 1014.5 |
| 20260830182528 | 98 | 225 | 10.0 | 16.0 | 0.00 | 0.00 | 0.00 | 38 | 1014.6 |
| 20260830181528 | 98 | 176 | 8.0 | 16.0 | 0.00 | 0.00 | 0.00 | 38 | 1014.7 |
| 20260830180517 | 98 | 182 | 9.0 | 18.0 | 0.00 | 0.00 | 0.00 | 40 | 1014.7 |
| 20260830175516 | 97 | 205 | 9.0 | 18.0 | 0.00 | 0.00 | 0.00 | 40 | 1014.9 |
| 20260830174501 | 97 | 182 | 8.0 | 18.0 | 0.00 | 0.00 | 0.00 | 42 | 1015.1 |
| 20260830173511 | 96 | 180 | 9.0 | 18.0 | 0.00 | 0.00 | 0.00 | 45 | 1015.2 |
| 20260830172459 | 96 | 176 | 9.0 | 17.0 | 0.00 | 0.00 | 0.00 | 45 | 1015.4 |
| 20260830171427 | 96 | 182 | 7.0 | 17.0 | 0.00 | 0.00 | 0.00 | 45 | 1015.5 |
| 20260830170359 | 95 | 179 | 6.0 | 15.0 | 0.00 | 0.00 | 0.00 | 49 | 1015.6 |
| 20260830163142 | 93 | 202 | 7.0 | 16.0 | 0.00 | 0.00 | 0.00 | 53 | 1015.8 |
| 20260830160955 | 91 | 208 | 7.0 | 14.0 | 0.00 | 0.00 | 0.00 | 55 | 1015.8 |
| 20260830154800 | 90 | 180 | 7.0 | 14.0 | 0.00 | 0.00 | 0.00 | 57 | 1015.8 |
| 20260830153814 | 89 | 257 | 6.0 | 13.0 | 0.00 | 0.00 | 0.00 | 58 | 1015.9 |
| 20260830152749 | 89 | 210 | 5.0 | 10.0 | 0.00 | 0.00 | 0.00 | 60 | 1015.9 |
| 20260830150629 | 87 | 193 | 6.0 | 12.0 | 0.00 | 0.00 | 0.00 | 63 | 1016.0 |
| 20260830145632 | 86 | 153 | 6.0 | 12.0 | 0.00 | 0.00 | 0.00 | 64 | 1015.9 |
| 20260830144614 | 86 | 224 | 6.0 | 12.0 | 0.00 | 0.00 | 0.00 | 64 | 1016.0 |
| 20260830143556 | 86 | 193 | 5.0 | 11.0 | 0.00 | 0.00 | 0.00 | 65 | 1016.0 |
| 20260830142605 | 85 | 188 | 6.0 | 11.0 | 0.00 | 0.00 | 0.00 | 66 | 1016.1 |
| 20260830140459 | 84 | 182 | 5.0 | 11.0 | 0.00 | 0.00 | 0.00 | 67 | 1016.1 |
| 20260830135458 | 84 | 201 | 3.0 | 9.0 | 0.00 | 0.00 | 0.00 | 68 | 1016.1 |
| 20260830134500 | 82 | 175 | 1.0 | 4.0 | 0.00 | 0.00 | 0.00 | 69 | 1016.1 |
| 20260830133438 | 80 | 152 | 1.0 | 4.0 | 0.00 | 0.00 | 0.00 | 71 | 1016.0 |
| 20260830132424 | 79 | 142 | 0.0 | 2.0 | 0.00 | 0.00 | 0.00 | 73 | 1015.9 |
| 20260830131357 | 77 | 148 | 1.0 | 3.0 | 0.00 | 0.00 | 0.00 | 75 | 1015.8 |
| 20260830130407 | 75 | 165 | 0.0 | 3.0 | 0.00 | 0.00 | 0.00 | 77 | 1015.8 |
| 20260830125409 | 74 | 121 | 0.0 | 2.0 | 0.00 | 0.00 | 0.00 | 79 | 1015.6 |
| 20260830124347 | 73 | 121 | 0.0 | 2.0 | 0.00 | 0.00 | 0.00 | 79 | 1015.6 |
| 20260830123357 | 72 | 125 | 0.0 | 1.0 | 0.00 | 0.00 | 0.00 | 78 | 1015.5 |
| 20260830122341 | 72 | 125 | 0.0 | 0.0 | 0.00 | 0.00 | 0.00 | 78 | 1015.3 |
| 20260830121328 | 72 | 125 | 0.0 | 0.0 | 0.00 | 0.00 | 0.00 | 77 | 1015.1 |
| 20260830120301 | 72 | 125 | 0.0 | 1.0 | 0.00 | 0.00 | 0.00 | 77 | 1015.0 |
| 20260830115229 | 73 | 125 | 0.0 | 0.0 | 0.00 | 0.00 | 0.00 | 76 | 1014.8 |
| 20260830114211 | 73 | 125 | 0.0 | 0.0 | 0.00 | 0.00 | 0.00 | 75 | 1014.7 |
| 20260830113223 | 73 | 125 | 0.0 | 0.0 | 0.00 | 0.00 | 0.00 | 75 | 1014.5 |
| 20260830112151 | 74 | 125 | 0.0 | 2.0 | 0.00 | 0.00 | 0.00 | 74 | 1014.4 |
| 20260830111146 | 74 | 126 | 1.0 | 2.0 | 0.00 | 0.00 | 0.00 | 74 | 1014.4 |
| 20260830110125 | 74 | 125 | 0.0 | 2.0 | 0.00 | 0.00 | 0.00 | 74 | 1014.4 |
| 20260830103959 | 74 | 125 | 0.0 | 0.0 | 0.00 | 0.00 | 0.00 | 72 | 1014.2 |
| 20260830103020 | 74 | 125 | 0.0 | 0.0 | 0.00 | 0.00 | 0.00 | 71 | 1014.2 |
| 20260830101953 | 75 | 125 | 0.0 | 0.0 | 0.00 | 0.00 | 0.00 | 70 | 1014.2 |
| 20260830101008 | 75 | 125 | 0.0 | 0.0 | 0.00 | 0.00 | 0.00 | 69 | 1014.2 |
| 20260830095939 | 75 | 125 | 0.0 | 1.0 | 0.00 | 0.00 | 0.00 | 68 | 1014.1 |
| 20260830093800 | 76 | 126 | 0.0 | 0.0 | 0.00 | 0.00 | 0.00 | 67 | 1014.1 |
| 20260830092806 | 77 | 126 | 1.0 | 3.0 | 0.00 | 0.00 | 0.00 | 65 | 1014.1 |
| 20260830091757 | 77 | 115 | 0.0 | 2.0 | 0.00 | 0.00 | 0.00 | 65 | 1014.1 |
| 20260830090726 | 78 | 115 | 0.0 | 5.0 | 0.00 | 0.00 | 0.00 | 64 | 1014.0 |
| 20260830085656 | 78 | 116 | 0.0 | 5.0 | 0.00 | 0.00 | 0.00 | 63 | 1014.1 |
| 20260830084635 | 78 | 96 | 0.0 | 2.0 | 0.00 | 0.00 | 0.00 | 63 | 1014.1 |
| 20260830083635 | 79 | 98 | 0.0 | 2.0 | 0.00 | 0.00 | 0.00 | 62 | 1014.2 |
| 20260830082612 | 79 | 100 | 0.0 | 1.0 | 0.00 | 0.00 | 0.00 | 61 | 1014.2 |
| 20260830081608 | 79 | 105 | 1.0 | 3.0 | 0.00 | 0.00 | 0.00 | 60 | 1014.2 |
| 20260830080557 | 80 | 117 | 1.0 | 7.0 | 0.00 | 0.00 | 0.00 | 60 | 1014.2 |
| 20260830075545 | 80 | 119 | 3.0 | 8.0 | 0.00 | 0.00 | 0.00 | 60 | 1014.3 |
| 20260830074550 | 80 | 128 | 3.0 | 8.0 | 0.00 | 0.00 | 0.00 | 60 | 1014.4 |
| 20260830073527 | 80 | 121 | 2.0 | 7.0 | 0.00 | 0.00 | 0.00 | 60 | 1014.5 |
| 20260830072546 | 79 | 116 | 3.0 | 8.0 | 0.00 | 0.00 | 0.00 | 60 | 1014.4 |
| 20260830070429 | 79 | 108 | 0.0 | 5.0 | 0.00 | 0.00 | 0.00 | 61 | 1014.5 |